CW9803 Weather Reports


time (UTC)temp
F
wind
direction
speed
knots
gust
knots
rain 1hr
in
rain 24hr
in
rain mn
in
humidity
%
barometer
mb
20260503212752 82 1 1.7 2.6 0.00 0.00 0.00 28 1009.4
20260503212250 81 168 0.9 0.9 0.00 0.00 0.00 29 1009.3
20260503211747 81 159 3.5 3.5 0.00 0.00 0.00 31 1009.7
20260503211243 81 156 1.7 1.7 0.00 0.00 0.00 29 1009.6
20260503210739 81 138 0.0 0.9 0.00 0.00 0.00 32 1009.7
20260503210237 80 128 0.0 0.9 0.00 0.00 0.00 28 1009.6
20260503205732 82 143 0.0 0.0 0.00 0.00 0.00 28 1009.6
20260503205228 79 157 0.9 1.7 0.00 0.00 0.00 30 1009.8
20260503204724 80 295 2.6 3.5 0.00 0.00 0.00 28 1009.9
20260503204223 80 152 0.9 1.7 0.00 0.00 0.00 26 1009.9
20260503203719 80 43 3.5 3.5 0.00 0.00 0.00 27 1010.1
20260503203217 79 252 2.6 2.6 0.00 0.00 0.00 28 1009.8
20260503202714 80 195 2.6 2.6 0.00 0.00 0.00 28 1010.1
20260503202212 78 144 0.9 0.9 0.00 0.00 0.00 28 1009.9
20260503201709 79 38 2.6 2.6 0.00 0.00 0.00 27 1010.1
20260503201207 79 184 1.7 1.7 0.00 0.00 0.00 28 1010.3
20260503200703 80 233 2.6 2.6 0.00 0.00 0.00 28 1010.1
20260503200159 78 154 0.0 0.9 0.00 0.00 0.00 29 1010.4
20260503195656 79 266 2.6 2.6 0.00 0.00 0.00 30 1010.5
20260503195153 79 157 0.9 0.9 0.00 0.00 0.00 31 1010.6
20260503194650 79 137 2.6 2.6 0.00 0.00 0.00 32 1010.4
20260503194146 77 141 0.0 0.9 0.00 0.00 0.00 32 1010.5
20260503193643 78 179 2.6 2.6 0.00 0.00 0.00 33 1010.7
20260503193138 78 99 1.7 2.6 0.00 0.00 0.00 32 1011.1
20260503192634 77 157 0.9 1.7 0.00 0.00 0.00 35 1010.7
20260503192130 76 134 2.6 3.5 0.00 0.00 0.00 37 1011.0
20260503191627 76 144 1.7 1.7 0.00 0.00 0.00 38 1011.1
20260503191124 74 139 0.9 0.9 0.00 0.00 0.00 40 1010.9
20260503190621 75 208 1.7 1.7 0.00 0.00 0.00 39 1011.1
20260503190118 75 150 2.6 2.6 0.00 0.00 0.00 41 1011.1
20260503185614 74 154 1.7 1.7 0.00 0.00 0.00 42 1011.4
20260503185114 75 226 1.7 1.7 0.00 0.00 0.00 41 1011.4
20260503184610 74 132 0.0 0.9 0.00 0.00 0.00 42 1011.4
20260503184107 73 160 1.7 3.5 0.00 0.00 0.00 43 1011.4
20260503183603 73 157 0.9 1.7 0.00 0.00 0.00 42 1011.4
20260503183101 72 95 2.6 2.6 0.00 0.00 0.00 40 1011.6
20260503182559 72 146 1.7 1.7 0.00 0.00 0.00 42 1011.7
20260503182057 71 153 0.9 1.7 0.00 0.00 0.00 44 1011.8
20260503181554 71 147 0.9 0.9 0.00 0.00 0.00 46 1011.9
20260503181050 71 161 1.7 2.6 0.00 0.00 0.00 46 1011.8
20260503180547 70 139 1.7 1.7 0.00 0.00 0.00 45 1011.9
20260503180045 70 148 1.7 2.6 0.00 0.00 0.00 48 1012.0
20260503175541 69 156 0.9 0.9 0.00 0.00 0.00 47 1012.1
20260503175038 69 145 1.7 1.7 0.00 0.00 0.00 47 1012.0
20260503174535 69 176 2.6 2.6 0.00 0.00 0.00 47 1012.2
20260503174031 68 130 1.7 1.7 0.00 0.00 0.00 47 1012.4
20260503173521 68 172 1.7 2.6 0.00 0.00 0.00 47 1012.2
20260503173018 68 153 0.9 1.7 0.00 0.00 0.00 48 1012.3
20260503172516 68 139 0.9 0.9 0.00 0.00 0.00 46 1012.3
20260503172013 66 141 1.7 2.6 0.00 0.00 0.00 48 1012.5
20260503171509 66 168 0.9 0.9 0.00 0.00 0.00 51 1012.4
20260503171006 66 173 1.7 1.7 0.00 0.00 0.00 49 1012.3
20260503170457 66 122 1.7 1.7 0.00 0.00 0.00 49 1012.6
20260503150849 54 145 0.9 0.9 0.00 0.00 0.00 67 1013.1
20260503150345 54 122 0.0 0.9 0.00 0.00 0.00 68 1013.1
20260503140309 47 248 0.0 0.0 0.00 0.00 0.00 81 1013.4
20260503131239 41 249 0.0 0.0 0.00 0.00 0.00 91 1013.4
20260503130737 40 249 0.0 0.0 0.00 0.00 0.00 91 1013.5
20260503130234 40 249 0.0 0.0 0.00 0.00 0.00 91 1013.4
20260503120200 41 248 0.0 0.0 0.00 0.00 0.00 91 1013.4
20260503110627 42 248 0.0 0.0 0.00 0.00 0.00 87 1013.2
20260503110124 42 249 0.0 0.0 0.00 0.00 0.00 87 1013.4
20260503090508 44 249 0.0 0.0 0.00 0.00 0.00 84 1013.4
20260503081428 46 249 0.0 0.0 0.00 0.00 0.00 81 1013.2
20260503080926 46 249 0.0 0.0 0.00 0.00 0.00 82 1013.3
20260503080422 46 249 0.0 0.0 0.00 0.00 0.00 82 1013.1
20260503072858 48 249 0.0 0.0 0.00 0.00 0.00 78 1013.0
20260503072355 48 249 0.0 0.0 0.00 0.00 0.00 79 1013.0
20260503071852 48 249 0.0 0.0 0.00 0.00 0.00 80 1013.0
20260503071349 48 249 0.0 0.0 0.00 0.00 0.00 78 1012.9
20260503070845 49 249 0.0 0.0 0.00 0.00 0.00 76 1013.1
20260503070343 50 249 0.0 0.0 0.00 0.00 0.00 75 1012.9
20260503060256 51 138 0.0 0.0 0.00 0.00 0.00 76 1013.1
20260503054744 52 130 0.0 0.0 0.00 0.00 0.00 75 1012.6
20260503054240 53 120 0.0 0.0 0.00 0.00 0.00 74 1012.9
20260503053738 53 113 0.0 0.0 0.00 0.00 0.00 69 1012.6
20260503053237 53 113 0.0 0.0 0.00 0.00 0.00 70 1012.5
20260503052733 54 111 0.0 0.0 0.00 0.00 0.00 71 1012.7
20260503052230 54 112 0.0 0.0 0.00 0.00 0.00 70 1012.6
20260503051724 55 104 0.0 0.0 0.00 0.00 0.00 66 1012.6
20260503051223 55 110 0.0 0.0 0.00 0.00 0.00 68 1012.4
20260503050719 55 116 0.0 0.0 0.00 0.00 0.00 68 1012.5
20260503050215 56 117 0.0 0.0 0.00 0.00 0.00 68 1012.3
20260503045713 56 108 0.0 0.0 0.00 0.00 0.00 63 1012.6
20260503045210 57 112 0.0 0.0 0.00 0.00 0.00 62 1012.4
20260503044707 57 358 0.9 0.9 0.00 0.00 0.00 61 1012.4
20260503044204 58 224 1.7 1.7 0.00 0.00 0.00 62 1012.5
20260503043701 59 171 0.0 0.0 0.00 0.00 0.00 60 1012.4
20260503043159 59 125 0.0 0.0 0.00 0.00 0.00 58 1012.2
20260503042654 60 125 0.0 0.9 0.00 0.00 0.00 57 1012.1
20260503042150 60 36 0.0 0.9 0.00 0.00 0.00 55 1012.2
20260503041647 61 123 0.9 0.9 0.00 0.00 0.00 55 1011.9
20260503041145 61 93 0.9 0.9 0.00 0.00 0.00 55 1012.0
20260503040642 61 91 1.7 1.7 0.00 0.00 0.00 54 1012.2
20260503040140 62 115 0.0 0.0 0.00 0.00 0.00 52 1011.9
20260503035636 61 93 0.9 0.9 0.00 0.00 0.00 51 1011.7
20260503035134 61 128 0.0 0.0 0.00 0.00 0.00 53 1011.7
20260503034631 62 157 0.0 0.0 0.00 0.00 0.00 53 1011.8
20260503034128 62 148 0.0 0.0 0.00 0.00 0.00 51 1011.7
20260503033625 62 125 0.0 0.9 0.00 0.00 0.00 51 1011.6
20260503033122 63 92 0.9 0.9 0.00 0.00 0.00 50 1011.6
20260503032621 63 120 0.9 0.9 0.00 0.00 0.00 49 1011.3
20260503032119 63 104 0.0 0.0 0.00 0.00 0.00 50 1011.4
20260503031616 64 86 0.9 1.7 0.00 0.00 0.00 50 1011.2
20260503031114 64 113 0.0 0.0 0.00 0.00 0.00 49 1011.1
20260503030609 65 43 0.0 1.7 0.00 0.00 0.00 47 1011.1
20260503030106 66 93 0.9 0.9 0.00 0.00 0.00 46 1011.1
20260503025603 67 80 1.7 1.7 0.00 0.00 0.00 43 1011.0
20260503025101 68 324 2.6 2.6 0.00 0.00 0.00 42 1010.8
20260503024557 69 299 2.6 3.5 0.00 0.00 0.00 38 1010.9
20260503024054 70 86 2.6 2.6 0.00 0.00 0.00 36 1010.8
20260503023551 69 299 2.6 3.5 0.00 0.00 0.00 38 1010.8
20260503023048 71 345 0.9 1.7 0.00 0.00 0.00 40 1010.9
20260503022544 71 336 1.7 2.6 0.00 0.00 0.00 36 1010.9
20260503022039 72 16 1.7 2.6 0.00 0.00 0.00 37 1010.8
20260503021536 73 132 0.0 0.0 0.00 0.00 0.00 36 1010.8
20260503021033 73 93 0.0 0.0 0.00 0.00 0.00 37 1010.9
20260503020530 73 38 0.9 1.7 0.00 0.00 0.00 36 1010.8
20260503020027 74 333 1.7 1.7 0.00 0.00 0.00 33 1010.8
20260503015524 74 59 1.7 1.7 0.00 0.00 0.00 32 1010.8
20260503015021 75 62 1.7 1.7 0.00 0.00 0.00 31 1010.9
20260503014517 75 41 3.5 5.2 0.00 0.00 0.00 30 1010.7
20260503014015 76 88 1.7 1.7 0.00 0.00 0.00 30 1010.7
20260503013512 76 69 3.5 3.5 0.00 0.00 0.00 31 1010.7
20260503013010 77 36 1.7 1.7 0.00 0.00 0.00 31 1010.6
20260503012507 78 191 0.0 0.9 0.00 0.00 0.00 28 1010.5
20260503012003 78 107 0.9 0.9 0.00 0.00 0.00 27 1010.5
20260503011500 78 335 2.6 2.6 0.00 0.00 0.00 23 1010.6
20260503010957 79 62 0.9 0.9 0.00 0.00 0.00 24 1010.5
20260503010453 79 107 0.9 1.7 0.00 0.00 0.00 26 1010.7
20260503005951 78 188 0.9 0.9 0.00 0.00 0.00 25 1010.6
20260503005448 77 350 1.7 1.7 0.00 0.00 0.00 22 1010.8
20260503004944 79 127 0.0 0.9 0.00 0.00 0.00 25 1010.7
20260503004441 80 143 0.0 0.0 0.00 0.00 0.00 23 1010.8
20260503003939 79 78 0.9 1.7 0.00 0.00 0.00 24 1010.7
20260503003436 79 106 0.0 0.9 0.00 0.00 0.00 23 1010.8
20260503002933 79 126 0.0 0.9 0.00 0.00 0.00 22 1010.7
20260503002430 78 41 2.6 3.5 0.00 0.00 0.00 22 1010.8
20260503001926 78 133 0.9 0.9 0.00 0.00 0.00 23 1010.5
20260503001423 78 78 0.9 1.7 0.00 0.00 0.00 23 1010.7
20260503000921 80 70 1.7 1.7 0.00 0.00 0.00 21 1011.0
20260503000417 79 182 0.9 1.7 0.00 0.00 0.00 22 1010.7
20260502235914 79 165 0.0 0.9 0.00 0.00 0.00 24 1010.5
20260502235411 79 299 3.5 5.2 0.00 0.00 0.00 22 1010.8
20260502234909 79 114 0.9 0.9 0.00 0.00 0.00 23 1010.7
20260502234405 80 142 0.0 0.0 0.00 0.00 0.00 22 1010.7
20260502233902 82 152 0.0 0.0 0.00 0.00 0.00 22 1010.9
20260502233358 80 149 0.9 1.7 0.00 0.00 0.00 21 1010.8
20260502232855 80 116 0.0 0.9 0.00 0.00 0.00 22 1010.8
20260502232351 80 152 0.0 0.0 0.00 0.00 0.00 21 1011.0
20260502231848 80 161 1.7 1.7 0.00 0.00 0.00 23 1010.8
20260502231346 80 157 0.9 1.7 0.00 0.00 0.00 23 1011.2
20260502230844 80 141 0.0 0.9 0.00 0.00 0.00 24 1011.2
20260502230342 79 117 0.9 1.7 0.00 0.00 0.00 23 1011.2
20260502225838 80 93 2.6 2.6 0.00 0.00 0.00 23 1011.1
20260502225335 80 76 0.9 0.9 0.00 0.00 0.00 23 1011.2
20260502224832 80 140 0.0 0.0 0.00 0.00 0.00 23 1011.3
20260502224328 79 138 1.7 1.7 0.00 0.00 0.00 22 1011.2
20260502223825 79 131 0.0 0.9 0.00 0.00 0.00 25 1011.4
20260502223323 79 160 0.9 1.7 0.00 0.00 0.00 27 1011.7
20260502222821 80 106 1.7 1.7 0.00 0.00 0.00 26 1011.8
20260502222318 79 153 0.0 0.9 0.00 0.00 0.00 27 1011.4
20260502221814 77 115 0.0 0.9 0.00 0.00 0.00 27 1011.4
20260502221310 77 144 0.9 1.7 0.00 0.00 0.00 28 1011.9
20260502220808 77 144 1.7 2.6 0.00 0.00 0.00 27 1011.9
20260502220303 77 145 0.0 0.0 0.00 0.00 0.00 26 1011.9
20260502215800 77 141 1.7 1.7 0.00 0.00 0.00 26 1012.0
20260502215257 78 116 0.9 1.7 0.00 0.00 0.00 25 1011.8
20260502214754 80 161 0.9 0.9 0.00 0.00 0.00 29 1012.0
20260502214250 79 129 0.9 0.9 0.00 0.00 0.00 27 1011.9
20260502213748 78 114 0.9 1.7 0.00 0.00 0.00 26 1011.9
20260502213245 78 183 1.7 1.7 0.00 0.00 0.00 25 1012.0